Location: Newark
(43.4100°N, 74.9600°W)
Time: 16:20:42
(UTC+00:00)

ISS - Visible Passes

Search period start: 18 September 2019 00:00
Search period end: 28 September 2019 00:00
Orbit: 411 x 421 km, 51.6° (Epoch: 19 September)

Date Brightness Start Highest point End Pass type
(mag) Time Alt. Az. Time Alt. Az. Time Alt. Az.
18 Sep -1.2 00:48:57 10° SSW 00:49:11 11° SSW 00:49:11 11° SSW visible
19 Sep -2.1 00:01:21 10° S 00:03:33 17° SE 00:03:48 16° SE visible
19 Sep -0.7 01:36:39 10° WSW 01:36:46 11° WSW 01:36:46 11° WSW visible
20 Sep -3.6 00:48:12 10° SW 00:51:05 62° SSW 00:51:05 62° SSW visible
20 Sep -3.4 23:59:58 10° SSW 00:03:07 43° SE 00:05:10 19° ENE visible
21 Sep -1.0 01:36:52 10° W 01:38:06 19° WNW 01:38:06 19° WNW visible
22 Sep -2.9 00:48:08 10° WSW 00:51:22 46° NNW 00:51:58 41° N visible
22 Sep -3.6 23:59:32 10° WSW 00:02:50 72° NNW 00:05:40 14° NE visible
23 Sep -0.9 01:37:17 10° WNW 01:38:35 17° NW 01:38:35 17° NW visible
24 Sep -2.0 00:48:27 10° WNW 00:51:20 27° NNW 00:52:09 24° N visible
24 Sep -2.4 23:59:37 10° W 00:02:43 35° NNW 00:05:37 11° NE visible
25 Sep -0.6 01:37:37 10° NW 01:38:31 14° NW 01:38:31 14° NW visible
26 Sep -1.7 00:48:49 10° WNW 00:51:24 20° N 00:51:54 20° N visible
26 Sep -1.7 23:59:57 10° WNW 00:02:41 23° NNW 00:05:14 11° NE visible
27 Sep -0.5 01:37:37 10° NW 01:38:07 13° NW 01:38:07 13° NW visible
